weather.gov     
National Weather Service

Terminal Aerodrome Forecast
NWS Homepage
This page is being discontinued on March 12, 2014.
The same data is available at this site. Please update your bookmarks.
Thank you, and we apologize for the inconvenience.
Please send an email to SR-SRH.Webmaster@noaa.gov with any concerns.


Current Version
Previous Version:    01  02  03  04  05  06  07  08  09  10  11  12  13  14  15  16  17  18  19  20  21  22  23  24  25  26  27  28  29  
[Printable]
072
FTUS44 KMOB 291100 RRA
TAFMOB
TAF
KMOB 291148Z 2912/3012 00000KT P6SM FEW100 BKN250
     FM291500 15008KT P6SM VCSH SCT040 BKN150 BKN250
     FM291800 14007KT P6SM VCTS SCT030CB BKN120
      TEMPO 2918/2922 4SM TSRA BKN025CB
     FM300100 14006KT P6SM SCT030=


U.S. Dept. of Commerce
NOAA National Weather Service
1325 East West Highway
Silver Spring, MD 20910
E-mail: w-nws.webmaster@noaa.gov
Page last modified: May 16, 2007
NATIONAL WEATHER SERVICE: for Safety, for Work, for Fun - FOR LIFE